Showing default

GALILEO 17 (26D), 41861

Orbit data source: Space-Track

GALILEO 17 (26D), 41861 is a payload satellite owned by GNSS Agency (ESA) that was launched on Thu, 17 Nov 2016 UTC via an ARIANE 5ES launch vehicle from the French Guiana (FRGUI). Payload-class satellites include a variety of spacecraft equipped with specific instruments for various scientific and technological missions. These include communications satellites like Starlink; space stations such as the ISS; scientific satellites like the Hubble; Earth observation satellites from companies like Planet Labs, Umbra, and HawkEye 360; GPS; miniature CubeSats for education and research; and military/defense satellites.

Loading next visibility...
Identifier
41861, 2016-069C
Orbit
Active
Country
Flag of ESAESA
Related business
Manufacturer
OHB
Mission
Operational Civil Navigation
Bus & Motor
GALILEOSAT, AOCS
Mass
738 kg wet, 700 kg dry
Launch date (UTC)
2016-11-17 (9 years ago)
Launch vehicle
ARIANE 5ES
Launch site
French Guiana (FRGUI)
Object type
Payload
Rocket body
Debris
Shape & HBR
Box + 2 Pan, 7.4 m
Radar Cross Section
9.223 m², Large (>1 m²)

Expand to show TLE details & history
Last TLE update: 1 day ago

TLE from 1 day ago
0 GALILEO 17 (26D)
1 41861U 16069C   25257.85946767  .00000010  00000-0  00000-0 0  9996
2 41861  55.3248 108.7144 0002034 310.4274  49.6379  1.70474331 54821
Epoch: 2025-09-14T20:37Z
TLE epoch observation values (Epoch: 2025-09-14T20:37:38.006Z)
Latitude
-0.00001°
Longitude
165.24471°
Altitude
23,218.517 km
Speed
3.67 km/s
True Right ascension
07h 14m 54s
True Declination
0° 00' 00"
Sunlit
Object was in daylight at epoch
Visualization orbit readout
Latitude
Unknown
Longitude
Unknown
Altitude
Unknown
Speed
Unknown
Apparent Right ascension
Unknown
Apparent Declination
Unknown
Sunlit
N/A
Visualization observer readout
Local Sidereal Time
21:37:23
Azimuth
Unknown
Elevation
Unknown
Doppler factor
Unknown
Orbital elements
Apogee altitude
23,228.162 km
Perigee altitude
23,216.121 km
Semi-major axis
29,600.278 km
Eccentricity
0.0002
Inclination
55.3248°
RAAN
108.7144°
Arg. of periapsis
310.4274°
True anomaly
49.65566°
Mean anomaly
49.6379°
Eccentric anomaly
49.64678°
Mean motion
0.42619 °/min
Orbital period
844.7 mins
BSTAR
0
Loading maneuver chart data...
Computing Atmospheric mass density...
Loading historical data...
Loading historical data...
Loading historical data...
Loading historical data...
Loading historical data...
Loading historical data...
Loading historical data...
Other satellites on launch #69 in the year 2016 (2016-11-17 UTC)

Documentation

Showing up to 5 results
|